Berthoud Pass, CO

4:44 AM MDT on September 20, 2019 (GMT -0600)
Berthoud Pass

Weather History for K0CO - August, 2019

Change the Weather History Date:

Saturday, August 24, 2019

  Actual Average (WUND) Record (WUND)
Temperature  
Mean Temperature 45 °F -  
Max Temperature 53 °F - - (-1)
Min Temperature 37 °F - - (-1)
Degree Days  
Heating Degree Days 20    
Moisture  
Dew Point 32 °F    
Average Humidity 60    
Maximum Humidity 65    
Minimum Humidity 54    
Precipitation  
Precipitation 0.00 in - - ()
Sea Level Pressure  
Sea Level Pressure 30.53 in    
Wind  
Wind Speed 26 mph (WNW)    
Max Wind Speed 47 mph    
Max Gust Speed 60 mph    
Visibility 10 miles    
Events      
Averages and records for this station are not official NWS values.
T = Trace of Precipitation, MM = Missing Value Source: NWS Daily Summary

Daily Weather History Graph

Daily Weather History Graph

Search for Another Location

Airport or City:

Astronomy

Aug. 24, 2019 Rise Set
Actual Time 6:23 AM MDT 7:46 PM MDT
Civil Twilight 5:55 AM MDT 8:14 PM MDT
Nautical Twilight 5:21 AM MDT 8:48 PM MDT
Astronomical Twilight 4:45 AM MDT 9:24 PM MDT
Moon 12:18 AM MDT (8/24) 3:05 PM MDT (8/24)
Length of Visible Light 14h 19m
Length of Day
13h 23m
Last Quarter, 38% of the Moon is Illuminated
Aug 24
Last Quarter
Aug 30
New
Sep 5
First Quarter
Sep 13
Full
Sep 21
Last Quarter

Hourly Weather History & Observations

Time (MDT) Temp. Windchill Dew Point Humidity Pressure Visibility Wind Dir Wind Speed Gust Speed Precip Events Conditions
12:12 AM 44.6 °F 40.2 °F 32.0 °F 61% 30.56 in 10.0 mi WSW 8.1 mph 16.1 mph N/A   Scattered Clouds
12:35 AM 44.6 °F 39.7 °F 32.0 °F 61% 30.56 in 10.0 mi West 9.2 mph 19.6 mph N/A   Scattered Clouds
12:53 AM 44.6 °F 40.2 °F 32.0 °F 61% 30.55 in 10.0 mi West 8.1 mph 23.0 mph N/A   Mostly Cloudy
1:12 AM 44.6 °F 36.9 °F 32.0 °F 61% 30.55 in 10.0 mi WNW 18.4 mph 31.1 mph N/A   Scattered Clouds
1:36 AM 44.6 °F 36.4 °F 32.0 °F 61% 30.55 in 10.0 mi WNW 20.7 mph 35.7 mph N/A   Clear
1:54 AM 44.6 °F 35.9 °F 32.0 °F 61% 30.54 in 10.0 mi WNW 23.0 mph 29.9 mph N/A   Clear
2:12 AM 42.8 °F 34.3 °F 30.2 °F 61% 30.54 in 10.0 mi WNW 19.6 mph 26.5 mph N/A   Scattered Clouds
2:32 AM 42.8 °F 34.3 °F 30.2 °F 61% 30.53 in 10.0 mi WNW 19.6 mph 28.8 mph N/A   Mostly Cloudy
2:56 AM 42.8 °F 33.8 °F 30.2 °F 61% 30.53 in 10.0 mi WNW 21.9 mph - N/A   Scattered Clouds
3:12 AM 42.8 °F 34.5 °F 30.2 °F 61% 30.53 in 10.0 mi WNW 18.4 mph 28.8 mph N/A   Scattered Clouds
3:36 AM 41.0 °F - 28.4 °F 61% 30.52 in 10.0 mi North - - N/A   Clear
3:53 AM 41.0 °F - 28.4 °F 61% 30.51 in 10.0 mi North - - N/A   Clear
4:12 AM 41.0 °F - 28.4 °F 61% 30.51 in 10.0 mi North - - N/A   Clear
4:36 AM 39.2 °F - 26.6 °F 61% 30.51 in 10.0 mi North - - N/A   Clear
4:54 AM 37.4 °F 26.4 °F 26.6 °F 65% 30.50 in 10.0 mi WNW 23.0 mph - N/A   Clear
5:12 AM 37.4 °F - 26.6 °F 65% 30.49 in 10.0 mi North - - N/A   Clear
5:36 AM 37.4 °F 25.0 °F 26.6 °F 65% 30.48 in 10.0 mi WNW 29.9 mph 38.0 mph N/A   Clear
5:54 AM 39.2 °F 27.8 °F 26.6 °F 61% 30.48 in 10.0 mi WNW 27.6 mph 36.8 mph N/A   Clear
6:12 AM 37.4 °F 24.8 °F 26.6 °F 65% 30.47 in 10.0 mi NW 31.1 mph 35.7 mph N/A   Clear
6:54 AM 37.4 °F 24.4 °F 26.6 °F 65% 30.46 in 10.0 mi WNW 33.4 mph 38.0 mph N/A   Clear
7:12 AM 37.4 °F 24.6 °F 26.6 °F 65% 30.46 in 10.0 mi WNW 32.2 mph 41.4 mph N/A   Clear
7:36 AM 37.4 °F 25.2 °F 26.6 °F 65% 30.47 in 10.0 mi WNW 28.8 mph 43.7 mph N/A   Clear
7:53 AM 37.4 °F 24.8 °F 26.6 °F 65% 30.47 in 10.0 mi NW 31.1 mph 41.4 mph N/A   Clear
8:17 AM 39.2 °F 26.6 °F 26.6 °F 61% 30.47 in 10.0 mi NW 34.5 mph 44.9 mph N/A   Clear
8:35 AM 39.2 °F 25.8 °F 26.6 °F 61% 30.48 in 10.0 mi WNW 40.3 mph 54.1 mph N/A   Clear
8:53 AM 41.0 °F 29.3 °F 26.6 °F 57% 30.48 in 10.0 mi WNW 33.4 mph 49.5 mph N/A   Clear
9:12 AM 41.0 °F 29.1 °F 26.6 °F 57% 30.48 in 10.0 mi NW 34.5 mph 49.5 mph N/A   Clear
9:36 AM 42.8 °F 31.6 °F 30.2 °F 61% 30.47 in 10.0 mi NW 34.5 mph 51.8 mph N/A   Clear
9:54 AM 42.8 °F 30.7 °F 30.2 °F 61% 30.45 in 10.0 mi WNW 41.4 mph 55.2 mph N/A   Clear
10:12 AM 44.6 °F 33.2 °F 32.0 °F 61% 30.46 in 10.0 mi WNW 41.4 mph 54.1 mph N/A   Clear
10:36 AM 44.6 °F 32.9 °F 32.0 °F 61% 30.47 in 10.0 mi NW 43.7 mph 59.8 mph N/A   Scattered Clouds
10:54 AM 44.6 °F 33.1 °F 32.0 °F 61% 30.47 in 10.0 mi NW 42.6 mph 56.4 mph N/A   Scattered Clouds
11:12 AM 46.4 °F 35.1 °F 32.0 °F 57% 30.48 in 10.0 mi WNW 47.2 mph 57.5 mph N/A   Scattered Clouds
11:36 AM 46.4 °F 36.0 °F 32.0 °F 57% 30.50 in 10.0 mi NW 39.1 mph 51.8 mph N/A   Clear
11:54 AM 46.4 °F 35.8 °F 32.0 °F 57% 30.51 in 10.0 mi NW 40.3 mph 51.8 mph N/A   Mostly Cloudy
12:12 PM 46.4 °F 36.0 °F 32.0 °F 57% 30.52 in 10.0 mi NW 39.1 mph 59.8 mph N/A   Overcast
12:36 PM 46.4 °F 36.0 °F 32.0 °F 57% 30.52 in 10.0 mi NW 39.1 mph 52.9 mph N/A   Mostly Cloudy
12:54 PM 46.4 °F 36.1 °F 33.8 °F 62% 30.52 in 10.0 mi WNW 38.0 mph 50.6 mph N/A   Scattered Clouds
1:12 PM 48.2 °F - 33.8 °F 58% 30.51 in 10.0 mi NW 39.1 mph 48.3 mph N/A   Clear
1:36 PM 48.2 °F - 33.8 °F 58% 30.52 in 10.0 mi NW 41.4 mph 50.6 mph N/A   Clear
1:53 PM 50.0 °F - 33.8 °F 54% 30.52 in 10.0 mi NW 35.7 mph 56.4 mph N/A   Clear
2:17 PM 50.0 °F - 35.6 °F 58% 30.52 in 10.0 mi NW 39.1 mph 51.8 mph N/A   Clear
2:35 PM 50.0 °F - 35.6 °F 58% 30.53 in 10.0 mi WNW 39.1 mph 57.5 mph N/A   Clear
2:53 PM 50.0 °F - 35.6 °F 58% 30.52 in 10.0 mi WNW 46.0 mph 55.2 mph N/A   Clear
3:12 PM 51.8 °F - 35.6 °F 54% 30.53 in 10.0 mi NW 40.3 mph 52.9 mph N/A   Clear
3:35 PM 51.8 °F - 35.6 °F 54% 30.53 in 10.0 mi WNW 43.7 mph 55.2 mph N/A   Clear
3:53 PM 51.8 °F - 37.4 °F 58% 30.53 in 10.0 mi WNW 42.6 mph 58.7 mph N/A   Clear
4:12 PM 51.8 °F - 37.4 °F 58% 30.54 in 10.0 mi WNW 41.4 mph 55.2 mph N/A   Clear
4:36 PM 51.8 °F - 37.4 °F 58% 30.54 in 10.0 mi WNW 41.4 mph 54.1 mph N/A   Clear
4:54 PM 51.8 °F - 37.4 °F 58% 30.56 in 10.0 mi NW 34.5 mph 50.6 mph N/A   Clear
5:12 PM 53.6 °F - 37.4 °F 54% 30.56 in 10.0 mi North - - N/A   Clear
5:36 PM 51.8 °F - 37.4 °F 58% 30.56 in 10.0 mi NW 25.3 mph 36.8 mph N/A   Clear
5:54 PM 51.8 °F - 35.6 °F 54% 30.57 in 10.0 mi NW 29.9 mph 41.4 mph N/A   Clear
6:32 PM 50.0 °F - 33.8 °F 54% 30.59 in 10.0 mi NNW 24.2 mph 33.4 mph N/A   Clear
6:56 PM 50.0 °F - 35.6 °F 58% 30.59 in 10.0 mi NNW 24.2 mph 34.5 mph N/A   Mostly Cloudy
7:12 PM 50.0 °F - 33.8 °F 54% 30.60 in 10.0 mi NW 21.9 mph 33.4 mph N/A   Scattered Clouds
7:36 PM 46.4 °F 37.9 °F 33.8 °F 62% 30.60 in 10.0 mi NW 25.3 mph 33.4 mph N/A   Clear
7:54 PM 44.6 °F 36.4 °F 32.0 °F 61% 30.60 in 10.0 mi NW 20.7 mph - N/A   Clear
8:12 PM 44.6 °F 35.5 °F 32.0 °F 61% 30.60 in 10.0 mi NW 25.3 mph - N/A   Clear
8:36 PM 44.6 °F 36.1 °F 32.0 °F 61% 30.60 in 10.0 mi NW 21.9 mph - N/A   Clear
8:54 PM 44.6 °F 35.3 °F 32.0 °F 61% 30.60 in 10.0 mi NW 26.5 mph - N/A   Clear
9:12 PM 44.6 °F 35.7 °F 32.0 °F 61% 30.60 in 10.0 mi NW 24.2 mph 31.1 mph N/A   Clear
9:36 PM 44.6 °F 35.1 °F 32.0 °F 61% 30.60 in 10.0 mi WNW 27.6 mph - N/A   Clear
9:54 PM 44.6 °F 34.9 °F 32.0 °F 61% 30.60 in 10.0 mi WNW 28.8 mph 34.5 mph N/A   Clear
10:12 PM 44.6 °F 34.6 °F 32.0 °F 61% 30.60 in 10.0 mi WNW 31.1 mph 38.0 mph N/A   Clear
10:36 PM 44.6 °F 34.4 °F 32.0 °F 61% 30.58 in 10.0 mi WNW 32.2 mph 41.4 mph N/A   Clear
10:54 PM 44.6 °F 34.1 °F 32.0 °F 61% 30.58 in 10.0 mi WNW 34.5 mph 46.0 mph N/A   Clear
11:17 PM 44.6 °F 33.9 °F 32.0 °F 61% 30.58 in 10.0 mi WNW 35.7 mph 47.2 mph N/A   Clear
11:35 PM 44.6 °F 34.1 °F 32.0 °F 61% 30.58 in 10.0 mi NW 34.5 mph 43.7 mph N/A   Clear
11:53 PM 44.6 °F 34.2 °F 32.0 °F 61% 30.58 in 10.0 mi WNW 33.4 mph 42.6 mph N/A   Clear